カタログに戻る

STARLINK-33859

運用中通信VLEO
NORAD 63640·PAYLOAD·🇺🇸 United States

打ち上げ Apr 25, 2025 から Cape Canaveral Space Force Station

Loading…

次のパス (今後24時間)

TLE

最新Source: CelesTrak SupGP

元期: Sep 15, 2026, 03:10 UTC

1 63640C 25083G   26258.13243056  .00018014  00000+0  65231-3 0  2585
2 63640  43.0043  15.7218 0002153 262.5960 155.0370 15.27576196    11

AllMySatでSTARLINK-33859をリアルタイム追跡

Download on the App Store